Location: Peterborough
(44.3091°N, 78.3197°W)
Time: 06:33:26
(UTC-04:00)

Vanguard 2 Rocket - Visible Passes

Search period start: 22 March 2023 00:00
Search period end: 01 April 2023 00:00
Orbit: 555 x 3316 km, 32.9° (Epoch: 21 March)

Date Brightness Start Highest point End Pass type
(mag) Time Alt. Az. Time Alt. Az. Time Alt. Az.
22 Mar 9.8 00:26:05 10° WSW 01:00:09 - ESE 00:29:01 22° WSW visible
22 Mar 10.5 03:05:55 20° SSE 03:05:55 20° SSE 03:11:06 10° SSE visible
22 Mar 10.4 05:11:41 17° SW 05:11:41 17° SW 05:19:53 10° S visible
22 Mar 8.7 21:14:23 10° SW 21:21:47 37° SSE 21:25:59 29° ESE visible
22 Mar 9.1 23:25:34 10° WSW 23:31:41 40° SW 23:31:41 40° SW visible
23 Mar10.502:09:16SE02:09:16SE01:37:23Wvisible
23 Mar 10.5 04:15:02 18° S 04:15:02 18° S 04:20:51 10° S visible
23 Mar 8.8 20:15:10 10° SSW 20:21:05 27° SSE 20:28:36 13° E visible
23 Mar 8.6 22:25:23 10° WSW 22:34:03 47° S 22:34:18 47° SSE visible
24 Mar 9.9 00:37:39 10° W 00:39:58 19° WSW 00:39:58 19° WSW visible
24 Mar 10.7 03:18:22 13° SSE 03:18:22 13° SSE 03:20:15 10° SSE visible
24 Mar 8.5 21:25:30 10° SW 21:32:48 41° SSE 21:36:50 32° SE visible
24 Mar 9.1 23:37:04 10° WSW 23:42:31 36° SW 23:42:31 36° SW visible
25 Mar10.602:21:40SE02:21:40SE01:48:12Wvisible
25 Mar 10.7 04:27:26 10° S 04:27:26 10° S 04:27:39 10° S visible
25 Mar 8.5 20:25:59 10° SW 20:32:00 32° SSE 20:39:20 15° ESE visible
25 Mar 8.6 22:36:48 10° WSW 22:45:01 47° S 22:45:01 47° S visible
26 Mar 10.0 00:49:20 10° W 00:50:42 15° WSW 00:50:42 15° WSW visible
26 Mar 8.4 21:36:48 10° WSW 21:43:57 43° S 21:47:28 34° SE visible
26 Mar 9.3 23:48:39 10° WSW 23:53:09 30° SW 23:53:09 30° SW visible
27 Mar 8.4 20:37:05 10° SW 20:43:03 35° SSE 20:49:53 17° ESE visible
27 Mar 8.7 22:48:17 10° WSW 22:55:34 43° SSW 22:55:34 43° SSW visible
28 Mar 10.2 01:01:14 10° WSW 01:01:15 10° WSW 01:01:15 10° WSW visible
28 Mar 8.4 21:48:13 10° WSW 21:55:10 42° S 21:57:58 36° SE visible
29 Mar 9.5 00:00:22 10° WSW 00:03:38 23° WSW 00:03:38 23° WSW visible
29 Mar 8.3 20:48:21 10° SW 20:54:12 37° S 21:00:21 19° ESE visible
29 Mar 8.8 22:59:53 10° WSW 23:06:02 36° SSW 23:06:02 36° SSW visible
30 Mar 8.5 21:59:42 10° WSW 22:06:24 38° S 22:08:24 35° SSE visible
31 Mar 9.7 00:12:21 10° WSW 00:14:05 16° WSW 00:14:05 16° WSW visible
31 Mar 8.3 20:59:44 10° WSW 21:05:25 36° S 21:10:47 21° SE visible
31 Mar 9.1 23:11:40 10° WSW 23:16:28 27° SW 23:16:28 27° SW visible
